STARLINK-34582, 64781

Orbit data source: Space-Track

STARLINK-34582, 64781 is a payload satellite owned by SpaceX/Seattle (US) in LEO that was launched on Tue, 08 Jul 2025 UTC via an FALCON 9 launch vehicle from the Air Force Eastern Test Range (AFETR). Payload-class satellites include a variety of spacecraft equipped with specific instruments for various scientific and technological missions. These include communications satellites like Starlink; space stations such as the ISS; scientific satellites like the Hubble; Earth observation satellites from companies like Planet Labs, Umbra, and HawkEye 360; GPS; miniature CubeSats for education and research; and military/defense satellites.

Loading next visibility...
Identifier
64781, 2025-147AC
Orbit
LEO
Country
Flag of USUS
Related business
Manufacturer
SpaceX/Seattle
Mission
Operational Commercial Communications
Bus & Motor
STARLINK V2MO, Unknown motor
Mass
575 kg wet, ~530 kg dry
Launch date (UTC)
2025-07-08 (1 year ago)
Launch vehicle
FALCON 9
Launch site
Air Force Eastern Test Range (AFETR)
Object type
Payload
Rocket body
Debris
Shape & HBR
Box + 1 Pan, 17.7 m
Radar Cross Section
41.120 m², Large (>1 m²)

Expand to show TLE details & history
Last TLE update: 21 hours ago

TLE from 21 hours ago
0 STARLINK-34582
1 64781U 25147AC  26227.29716884  .00013630  00000-0  41407-3 0  9991
2 64781  53.1570 222.6013 0000956  95.2398 264.8714 15.34378250 63011
Epoch: 2026-08-15T07:07Z
TLE epoch observation values (Epoch: 2026-08-15T07:07:55.387Z)
Latitude
-0.00001°
Longitude
151.91045°
Altitude
463.727 km
Speed
7.636 km/s
True Right ascension
14h 50m 24s
True Declination
0° 00' 00"
Sunlit
Object was in daylight at epoch
Visualization orbit readout
Latitude
Unknown
Longitude
Unknown
Altitude
Unknown
Speed
Unknown
Apparent Right ascension
Unknown
Apparent Declination
Unknown
Sunlit
N/A
Visualization observer readout
Local Sidereal Time
19:03:45
Azimuth
Unknown
Elevation
Unknown
Doppler factor
Unknown
Orbital elements
Apogee altitude
463.679 km
Perigee altitude
462.371 km
Semi-major axis
6,841.162 km
Eccentricity
0.0001
Inclination
53.157°
RAAN
222.6013°
Arg. of periapsis
95.2398°
True anomaly
264.86049°
Mean anomaly
264.8714°
Eccentric anomaly
264.86594°
Mean motion
3.83573 °/min
Orbital period
93.85 mins
BSTAR
0.00041407
Loading maneuver chart data...
Computing Atmospheric mass density...
Loading historical data...
Loading historical data...
Loading historical data...
Loading historical data...
Loading historical data...
Loading historical data...
Loading historical data...

Documentation

Showing up to 5 results
|